Timeline UpdatesTrip UpdatesNews PostsPvt PostsTravel TipsAdmin PostsConv PostsFollowed PostsChat RequestsBlog PostsPNR Posts

Disclaimer
Search
 
 
Sat Aug 2, 2014 05:55:29 ISTHomeTrainsΣChainsAtlasPNRForumGalleryNewsFAQTripsMembersLoginFeedback
No Recent News for this Train
Other Trains in the News **new
Latest...
Cancelled on 20/5/14.
Mon May 19, 2014 (06:12PM)
⇐ Return Journey: Train# 13008

13007/Udyan Abha Toofan Express

Aug 02 departure has been Rescheduled to start 2h 15m late
New Time: 11:50
May 08 2014 (6:16PM)
Change Departure Station:
Change Arrival Station:
Post a Train Travel TipPost a Train Travel Tip **new
Post a Comment/Question/Picture/VideoPost a Comment/Question/Picture/Video
Inaugural Run
Wed Jan 01, 1930
Pantry/Catering
✕ NO Pantry Car
✕ NO Catering
Loco/Rake Reversals
AGC/Agra Cantt. (6);
RSA - Rake Sharing
Rake/Coach Composition
LOCO-SLR-GEN-GEN-B1-S5-S4-S3-S2-S1-GEN-GEN-SLR-HCPV-HCPV.
Loco
HWH-NDLS: HWH WAP-4 NDLS-SGNR: TKD WDM-3A
News    PNR    Forum    Time-Table    Availability    Fare Chart    Map    Arr/Dep History    Trips    Gallery    ΣChains    X/O    Timeline    
Travel Time: 11h 56m    37 halts    Distance: 560 km    Avg Speed: 46 km/hr
Type: Mail/Express
Zone: ER/Eastern
Departs @ 09:35 (Avg 44m late)
Platform# 11
SMTWTFS
Kolkata Howrah Junction/HWH 
Arrives @ 21:31 (Avg 2h 7m late)
Platform# ???
SMTWTFS
Neora/NEO 

37 halts. 135 intermediate Stations between Kolkata Howrah Junction and Neora

Show ALL intermediate Stations  Show Old Time-Table

#CodeStation NameX/OArrivesAvgDepartsAvgHaltPFDay#KmSpeedElevZoneAddress
1HWH»Kolkata Howrah Junction (23)»  -09:35+441110.04210mERHowrah 711101, West Bengal
2BDCBandel Junction (7)X  10:32+4710:37+485m--139.67014mERdist - HOOGHLY, West Bengal
3BWNBarddhaman Junction (8)X  11:35+5211:40+525m--1106.88234mERDist - Barddhaman, West Bengal
4PANPanagarh (4)  12:15+5612:16+571m--1154.85570mERKaksa, West Bengal
5DGRDurgapur (5)X  12:33+5312:35+542m31170.47971mERDurgapur, West Bengal
6UDLAndal Junction (6)X  12:48+5712:50+572m--1187.46286mERAndal, West Bengal
7RNGRaniGanj (4)X  12:57+1:0012:58+1:021m--1194.73492mERRaniganj, West Bengal
8ASNAsansol Junction (7)X  13:30+4813:35+545m41212.840113mERDist - bardhaman, West Bengal
9STNSitarampur Junction (5)  13:48+5613:50+572m--1221.658139mERG T Rd Before Asansol, West Bengal
10CRJChittaranjan (3)X  14:07+5914:08+1:001m31237.966182mERMihijam, Jharkhand
11JMTJamtara (2)X  14:21+1:0014:22+1:021m11252.263201mERJamtara, Jharkhand
12VDSVidyasagar (2)  14:39+1:0214:40+1:041m--1270.166250mERJamtara, Jharkhand
13MDPMadhupur Junction (4)  15:02+1:0515:12+1:0210m21294.367254mER06432-224478, Jharkhand
14JSMEJasidih Junction (5)  15:38+1:0315:43+1:035m--1323.480271mERJasidih, Jharkhand
15STLSimultala (2)XO  16:02+1:1916:03+1:201m--1348.830247mERSimultala, Bihar
16JAJJhajha (4)X  16:40+5616:45+575m31367.562143mECRJhajha, Bihar
17GHRGidhaur (2)X  16:56+1:0116:57+1:041m--1378.973106mECRState Highway 18, Bihar
18JMUJamui (3)X  17:09+1:0917:10+1:141m--1393.59481mECRState Highway 72, Bihar
19MNPMananpur (2)  17:23+1:1517:24+1:191m--1413.91757mECRState Highway 18, Bihar
20BSQPBansipur  17:33+1:1817:34+1:221m--1416.42653mECRKiul, Bihar
21KIULKiul Junction (5)X  17:44+1:2217:48+1:224m31420.81253mECRDist. Lakhisarai, Bihar
22LKRLuckeesarai Junction (2)X  17:55+1:2117:56+1:221m--1422.14852mECRLakhisarai, Bihar
23MKBMankatha  18:03+1:2118:04+1:231m--1427.73547mECRNational Highway 80, Bihar
24DMRXDumri Halt (1)  18:13-18:14-1m11433.05149mECRNational Highway 80, Bihar
25BRYABarhiya (3)  18:19+1:2218:20+1:241m--1437.25647mECRBarahiya, Bihar
26HTZHathidah Junction (2)X  18:30+1:2518:31+1:261m21446.65650mECRMusahari, Bihar
27MKAMokama Junction (3)X  18:40+1:2918:44+1:294m--1455.07248mECRPatna, Bihar
28MORMorX  18:50+1:3118:51+1:311m--1462.25546mECRMor, Bihar
29PHKPunarakh  19:00+1:3019:01+1:321m--1470.56251mECRPunarakh, Bihar
30BARHBarh (3)X  19:11+1:3119:12+1:341m--1480.96949mECRBarh, Bihar
31ATLAthmal Gola (2)XO  19:20+1:3519:21+1:351m--1490.12252mECRPatna, Bihar
32BKPBakhtiyarpur Junction (5)X  19:46+1:1919:48+1:222m--1499.17951mECRPatna, Bihar
33KOOKhusropur (2)  19:59+1:2520:00+1:291m--1513.75652mECRPatna, Bihar
34FUTFatwa (6)  20:09+1:3120:10+1:381m--1522.17353mECRPatna, Bihar
35PNCPatna Saheb (3)X  20:20+1:4620:21+1:511m--1534.42659mECRPatna, Bihar
36GZHGulzarbagh (3)X  20:28+1:4720:29+1:531m--1537.42055mECRPatna, Bihar
37PNBEPatna Junction (10)X  20:50+1:4921:00+1:5510m41544.23857mECRPatna 800001, Bihar
38DNRDanapur (5)XO  21:15+2:0521:25+2:0610m--1553.66058mECRKhagaul, Bihar
39NEO•Neora (2)•X  21:31+2:0721:32+2:121m--1559.76161mECRNational Highway 98, Bihar
40SDESadisopur (2)  21:39-21:40-1m--1566.85164mECRSadisopur, Bihar
41BTABihta (2)X  21:45+2:1421:46+2:181m--1571.04862mECRDistt: Patna, Bihar
42KWRKoelwar (2)O  21:57-21:58-1m--1579.73165mECRNational Highway 30, Bihar
43KUAKulharia (2)  22:05+2:1422:06+2:151m--1583.35461mECRChandi Sahar Rd, Bihar
44ARAAra Junction (3)  22:17+2:1422:22+2:165m--1593.29263mECRarrah( 06182-233411), Bihar
45BEABihiya (3)  22:36+2:2022:37+2:241m--1614.65167mECRBehea, Bihar
46BYNBanahi (2)  22:44+2:2422:45+2:241m--1620.55967mECRBanahi, Bihar
47RPRRaghunathpur (4)  22:54+2:2222:55+2:251m--1629.47469mECRRaghunathpur, Bihar
48DUREDumraon (3)  23:08+2:2723:09+2:281m--1645.36170mECRDumraon, Bihar
49BXRBuxar (3)X  23:25+2:2923:30+2:285m--1661.78067mECRBuxar, Bihar
50DLNDildarnagar Junction (2)  23:57+2:3223:59+2:322m--1697.95872mECRDildarnagar, Uttar Pradesh
51ZNAZamania (2)XO  00:13+2:3100:14+2:321m--2711.42077mECRGhazipur, Uttar Pradesh
52MGSMughal Sarai Junction (8)XO  02:25+1:0802:40+1:1015m--2755.65583mECRMughalsarai 232101, Uttar Pradesh
53CARChunar Junction (5)X  03:15+1:4403:16+1:501m22787.56185mNCRChunar Junction, Uttar Pradesh
54MZPMirzapur (3)O  03:47+2:1203:48+2:171m--2818.84988mNCRMirzapur, Uttar Pradesh
55BDLVindhyachal (3)  03:57+2:1703:58+2:201m--2826.17488mNCRMirzapur, Uttar Pradesh
56ALDAllahabad Junction (10)X  05:05+3:1205:15+3:1310m22908.377100mNCRAllahabad 211003, Uttar Pradesh
57BREBharwariX  05:44+3:2705:45+3:281m--2945.475108mNCRBharwari, Uttar Pradesh
58SROSirathu (2)X  06:01+3:3106:02+3:341m12965.571109mNCRSirathu, Uttar Pradesh
59KGAKhaga (3)  06:23+3:3706:24+3:411m--2990.352114mNCRFatehpur, Uttar Pradesh
60FTPFatehpur (3)  07:04+3:3607:05+3:411m--21025.085120mNCRFatehpur, Uttar Pradesh
61BKOBindki Road  07:27+3:4907:28+3:541m--21056.349124mNCRFatehpur, Uttar Pradesh
62CNBKanpur Central (10)O  08:25+4:0508:40+4:0915m221102.625128mNCRKANPUR-208 001, Uttar Pradesh
63GOYGovindpuri Junction (2)  08:49+4:1808:50+4:181m--21106.451129mNCRKANPUR-208 006, Uttar Pradesh
64PNKPanki (3)  08:59+4:2709:00+4:281m--21114.186129mNCRKANPUR-208 020, Uttar Pradesh
65RURARura (4)  09:23+4:3609:24+4:401m--21146.971137mNCRJhinjhak, Uttar Pradesh
66JJKJhinjhak (3)  09:40+4:4109:41+4:441m321165.974140mNCRAuraiya, Uttar Pradesh
67PHDPhaphund (4)X  09:57+4:4809:58+4:511m--21185.767146mNCRdist. Auraiya, Uttar Pradesh
68ULDAchalda (3)X  10:13+4:5110:14+4:541m--21202.573147mNCRDist. Auraiya(05688-1072), Uttar Pradesh
69BNTBharthana (3)X  10:30+4:5410:31+4:571m--21222.052147mNCRBharthana, Uttar Pradesh
70ETWEtawah (5)  10:54+5:0010:55+5:041m221241.980154mNCRDistt. Etawah, Uttar Pradesh
71JGRJaswantnagar (2)X  11:07+5:0711:08+5:091m--21257.969154mNCRJaswantnagar, Uttar Pradesh
72BDNBhadan (2)  11:25+5:0911:26+5:111m--21277.352160mNCRFirozabad, Uttar Pradesh
73SKBShikohabad Junction (4)X  11:49+5:0911:50+5:121m321297.338166mNCRDistrict Firozabad, Uttar Pradesh
74FZDFirozabad (4)  12:21+5:0112:22+5:051m321317.223164mNCRFirozabad, Uttar Pradesh
75TDLTundla Junction (5)  13:05+4:5413:15+4:5210m221333.721167mNCRDistt.Firozabad, Uttar Pradesh
76AFAgra Fort (3)  14:20+4:3914:25+5:065m221356.714170mNCRRakabganj, Uttar Pradesh
77IDHIdgah Agra Junction (3)  14:34+5:0814:35+5:341m--21358.85168mNCRAgra, Uttar Pradesh
78AGCAgra Cantt. (6)XO15:00+5:1915:20+5:3820m321361.013174mNCRAgra, Uttar Pradesh
79RKMRaja Ki Mandi (4)  15:38+5:3415:39+5:351m121365.065170mNCRAgra, Uttar Pradesh
80MTJMathura Junction (10)  16:25+5:3416:33+5:318m221414.772179mNCRMathura, Uttar Pradesh
81CHJChata (4)X  16:59+5:3317:00+5:351m--21445.851185mNCRChhata, Uttar Pradesh
82KSVKosi Kalan (3)X  17:12+5:3417:13+5:351m121456.155189mNCRKosi Kalan, Uttar Pradesh
83PWLPalwal (8)X  17:59+5:2518:00+5:281m--21498.656200mNRPalwal, Haryana
84ASTAsaoti (5)  18:12+5:3318:13+5:341m321509.959203mNRAsaoti, Haryana
85BVHBallabgarh (5)  18:23+5:3518:24+5:361m--21519.850203mNRFaridabad, Haryana
86FDNFaridabad New Town (3)X  18:29+5:3718:30+5:381m--21523.947204mNRFaridabad, Haryana
87FDBFaridabad (4)  18:35+5:4118:36+5:421m221527.848206mNRold Faridabad, Haryana
88TKDTuglakabad (4)X  18:50+5:4318:51+5:441m--21538.933213mNRNear Tughlakabad Metro Station, Delhi NCT
89OKAOkhla (4)  19:02+5:4419:03+5:441m--21544.918221mNRIshwar Nagar Mathura Road, Delhi NCT
90NZMDelhi Hazrat Nizamuddin (7)X  19:15+5:4219:17+5:422m321548.648209mNRNizamuddin East/Sarai KaleKhan Bus Terminal, Delhi NCT
91TKJTilak Bridge (4)X  19:23+5:4619:24+5:451m--21553.49214mNRNew Delhi, Delhi NCT
92NDLSNew Delhi (16)X  19:40+5:4220:10+5:4230m221555.814215mNRNew Delhi, Delhi NCT
93DKZDelhi KishanGanj (2)  20:27+5:4520:28+5:461m--21559.732220mNRSarai Rohilla, Delhi NCT
94SSBShakur BastiX  20:41+5:4520:42+5:461m--21566.745216mNRPitampura, Delhi NCT
95NNONangloiX  20:52+5:4820:53+5:491m--21574.158219mNRJJ Colony No 1, Delhi NCT
96BGZBahadurgarh  21:06+5:4721:07+5:491m--21586.672220mNRBahadurgarh, Haryana
97SPZSamplaX  21:22+5:5421:23+5:551m--21604.650222mNRSampla, Haryana
98ROKRohtak Junction (3)  21:50+5:5221:55+5:505m--21626.967220mNRRohtak, Haryana
99JNAJulana  22:23+5:4622:24+5:461m--21658.350226mNRJulana, Haryana
100JINDJind Junction (3)  22:55+5:4423:00+5:435m--21684.070222mNR126102., Haryana
101UCAUchana  23:16+5:4423:17+5:461m--21702.765225mNRDistrict Jind, Haryana
102NRWNarwana Junction (4)  23:31+5:4923:32+5:501m--21717.973235mNRWay to Narwana, Haryana
103TUNTohana (2)  23:53+5:5023:54+5:511m--21743.335232mNRTohana, Haryana
104JHLJakhal Junction  00:15+5:5300:25+5:4310m--31755.643225mNRJakhal, Haryana
105BLZBudhladaX  01:06+5:3901:07+5:411m--31785.248223mNRBudhlada, Punjab
106MSZMansa  01:27+5:3201:28+5:341m--31801.349222mNRMansa, Punjab
107MAURMaur  01:51+5:3001:52+5:311m--31820.026220mNRMaur Mandi, Punjab
108BTIBathinda Junction (6)XO  03:15+5:0704:05+4:5250m231855.573208mNRBathinda, Punjab
109GDBGiddarbaha  04:28+5:0004:29+5:091m--31883.357200mNRGiddarbaha, Punjab
110MOTMalout (1)  04:46+5:0904:47+5:101m131899.544194mNRMalaut, Punjab
111ABSAbohar  05:27+4:5905:28+5:011m--31929.035186mNRAbohar, Punjab
112SGNRShri Ganganagar  07:00+4:32-331982.1-178mNWRSri Ganganagar, Rajasthan
Scroll to Top
Scroll to Bottom